Weather History for Henderson, KY

Change the Weather History Date:

Saturday, December 7, 2013

  Actual Average Record
Temperature  
Mean Temperature 16 °F -  
Max Temperature 21 °F 47 °F 71 °F (1939)
Min Temperature 12 °F 31 °F 4 °F (1984)
Degree Days  
Heating Degree Days 48    
Moisture  
Dew Point 11 °F    
Average Humidity 75    
Maximum Humidity 85    
Minimum Humidity 68    
Precipitation  
Precipitation 0.08 in - - ()
Sea Level Pressure  
Sea Level Pressure 30.57 in    
Wind  
Wind Speed 9 mph (North)    
Max Wind Speed 14 mph    
Max Gust Speed 20 mph    
Visibility 10 miles    
Events      
Averages and records for this station are not official NWS values.
T = Trace of Precipitation, MM = Missing Value Source: NWS Daily Summary

Daily Weather History Graph

Daily Weather History Graph

Search for Another Location

Airport:

Trip Planner

Search our weather history database for the weather conditions in past years. The results will help you decide how hot, cold, wet, or windy it might be!

Date:

Astronomy

Dec. 07, 2013 Rise Set
Actual Time 6:53 AM CST 4:31 PM CST
Civil Twilight 6:23 AM CST 5:00 PM CST
Nautical Twilight 5:51 AM CST 5:33 PM CST
Astronomical Twilight 5:19 AM CST 6:05 PM CST
Moon 10:41 AM CST (12/7) 10:08 PM CST (12/7)
Length of Visible Light 10h 36m
Length of Day
9h 38m
Waxing Crescent, 29% of the Moon is Illuminated
Dec 7
Waxing Crescent
Dec 9
First Quarter
Dec 17
Full
Dec 25
Last Quarter
Jan 1
New

Hourly Weather History & Observations

Time (CST) Temp. Windchill Dew Point Humidity Pressure Visibility Wind Dir Wind Speed Gust Speed Precip Events Conditions
12:15 AM 21.2 °F 10.1 °F 12.2 °F 68% 30.50 in 10.0 mi NNW 10.4 mph - 0.01 in   Overcast
12:35 AM 19.4 °F 8.6 °F 12.2 °F 74% 30.50 in 10.0 mi North 9.2 mph - 0.01 in   Overcast
12:55 AM 19.4 °F 7.9 °F 12.2 °F 74% 30.51 in 10.0 mi North 10.4 mph 16.1 mph 0.01 in   Overcast
1:15 AM 19.4 °F 7.9 °F 12.2 °F 74% 30.52 in 10.0 mi NNW 10.4 mph - 0.01 in   Overcast
1:35 AM 19.4 °F 7.9 °F 12.2 °F 74% 30.51 in 10.0 mi North 10.4 mph - 0.01 in   Overcast
1:55 AM 19.4 °F 6.6 °F 12.2 °F 74% 30.52 in 10.0 mi North 12.7 mph 17.3 mph 0.01 in   Overcast
2:15 AM 19.4 °F 7.2 °F 12.2 °F 74% 30.53 in 10.0 mi North 11.5 mph 17.3 mph 0.01 in   Overcast
2:35 AM 17.6 °F 6.4 °F 10.4 °F 73% 30.54 in 10.0 mi North 9.2 mph 19.6 mph 0.01 in   Overcast
2:55 AM 17.6 °F 5.7 °F 10.4 °F 73% 30.54 in 10.0 mi North 10.4 mph - 0.01 in   Overcast
3:15 AM 17.6 °F 7.3 °F 8.6 °F 68% 30.55 in 10.0 mi NNW 8.1 mph - N/A   Scattered Clouds
3:35 AM 15.8 °F 6.1 °F 8.6 °F 73% 30.55 in 10.0 mi North 6.9 mph - 0.01 in   Clear
3:55 AM 15.8 °F 6.1 °F 8.6 °F 73% 30.55 in 10.0 mi North 6.9 mph - 0.01 in   Clear
4:15 AM 15.8 °F 6.1 °F 8.6 °F 73% 30.56 in 10.0 mi NNW 6.9 mph - N/A   Clear
4:35 AM 15.8 °F 8.6 °F 6.8 °F 68% 30.57 in 10.0 mi North 4.6 mph - N/A   Clear
4:55 AM 14.0 °F 5.1 °F 6.8 °F 73% 30.57 in 10.0 mi North 5.8 mph - 0.01 in   Clear
5:15 AM 14.0 °F 2.9 °F 6.8 °F 73% 30.58 in 10.0 mi North 8.1 mph - N/A   Clear
5:35 AM 14.0 °F 8.2 °F 8.6 °F 79% 30.59 in 10.0 mi North 3.5 mph - N/A   Clear
5:55 AM 12.2 °F 6.1 °F 8.6 °F 85% 30.60 in 10.0 mi North 3.5 mph - N/A   Clear
6:15 AM 12.2 °F 2.9 °F 6.8 °F 79% 30.61 in 10.0 mi North 5.8 mph - N/A   Clear
6:35 AM 12.2 °F 2.9 °F 6.8 °F 79% 30.62 in 10.0 mi NNW 5.8 mph - N/A   Clear
6:55 AM 12.2 °F 1.7 °F 5.0 °F 73% 30.62 in 10.0 mi North 6.9 mph - 0.01 in   Clear
7:15 AM 12.2 °F 4.3 °F 6.8 °F 79% 30.62 in 10.0 mi North 4.6 mph - N/A   Clear
7:35 AM 12.2 °F 2.9 °F 6.8 °F 79% 30.62 in 10.0 mi North 5.8 mph - N/A   Clear
7:55 AM 12.2 °F 0.7 °F 6.8 °F 79% 30.62 in 10.0 mi North 8.1 mph - N/A   Clear
8:15 AM 12.2 °F -1.0 °F 6.8 °F 79% 30.63 in 10.0 mi North 10.4 mph - N/A   Clear
8:35 AM 12.2 °F -0.2 °F 6.8 °F 79% 30.63 in 10.0 mi North 9.2 mph - N/A   Clear
8:55 AM 14.0 °F 2.9 °F 8.6 °F 79% 30.64 in 10.0 mi North 8.1 mph - N/A   Clear
9:15 AM 14.0 °F 0.5 °F 6.8 °F 73% 30.64 in 10.0 mi North 11.5 mph - N/A   Clear
9:35 AM 14.0 °F 2.9 °F 6.8 °F 73% 30.65 in 10.0 mi NNE 8.1 mph - N/A   Clear
9:55 AM 14.0 °F 1.2 °F 8.6 °F 79% 30.65 in 10.0 mi NNE 10.4 mph - N/A   Clear
10:15 AM 15.8 °F 3.4 °F 8.6 °F 73% 30.65 in 10.0 mi NNE 10.4 mph - N/A   Clear
10:35 AM 15.8 °F 4.2 °F 8.6 °F 73% 30.65 in 10.0 mi NNE 9.2 mph - 0.01 in   Clear
10:55 AM 15.8 °F 3.4 °F 8.6 °F 73% 30.64 in 10.0 mi NNE 10.4 mph - 0.01 in   Clear
11:15 AM 17.6 °F 7.3 °F 10.4 °F 73% 30.64 in 10.0 mi NNE 8.1 mph - N/A   Clear
11:35 AM 17.6 °F 7.3 °F 10.4 °F 73% 30.63 in 10.0 mi NNE 8.1 mph - N/A   Clear
11:55 AM 17.6 °F 10.7 °F 10.4 °F 73% 30.63 in 10.0 mi NNE 4.6 mph - N/A   Clear
12:15 PM 19.4 °F 9.5 °F 12.2 °F 74% 30.62 in 10.0 mi WNW 8.1 mph - N/A   Clear
12:35 PM 19.4 °F 8.6 °F 10.4 °F 68% 30.61 in 10.0 mi NW 9.2 mph - N/A   Clear
12:55 PM 19.4 °F 9.5 °F 12.2 °F 74% 30.60 in 10.0 mi NNW 8.1 mph - N/A   Clear
1:15 PM 19.4 °F 8.6 °F 12.2 °F 74% 30.59 in 10.0 mi NNW 9.2 mph - N/A   Clear
1:35 PM 19.4 °F 8.6 °F 12.2 °F 74% 30.59 in 10.0 mi NW 9.2 mph - N/A   Clear
1:55 PM 19.4 °F 9.5 °F 12.2 °F 74% 30.58 in 10.0 mi NNW 8.1 mph - N/A   Clear
2:15 PM 19.4 °F 9.5 °F 10.4 °F 68% 30.58 in 10.0 mi NNW 8.1 mph - N/A   Clear
2:35 PM 19.4 °F 10.4 °F 10.4 °F 68% 30.58 in 10.0 mi NNW 6.9 mph - N/A   Clear
2:55 PM 19.4 °F 11.5 °F 10.4 °F 68% 30.58 in 10.0 mi North 5.8 mph - N/A   Clear
3:15 PM 19.4 °F 8.6 °F 12.2 °F 74% 30.57 in 10.0 mi NNE 9.2 mph - N/A   Clear
3:35 PM 19.4 °F 8.6 °F 12.2 °F 74% 30.57 in 10.0 mi NNE 9.2 mph - N/A   Clear
3:55 PM 19.4 °F 10.4 °F 12.2 °F 74% 30.57 in 10.0 mi NNE 6.9 mph - 0.01 in   Clear
4:15 PM 17.6 °F 7.3 °F 12.2 °F 79% 30.58 in 10.0 mi NNE 8.1 mph - N/A   Clear
4:35 PM 17.6 °F 7.3 °F 10.4 °F 73% 30.57 in 10.0 mi NNE 8.1 mph - N/A   Clear
4:55 PM 17.6 °F 7.3 °F 12.2 °F 79% 30.58 in 10.0 mi North 8.1 mph - N/A   Clear
5:15 PM 17.6 °F 7.3 °F 12.2 °F 79% 30.57 in 10.0 mi NNE 8.1 mph - N/A   Clear
5:35 PM 17.6 °F 5.7 °F 12.2 °F 79% 30.57 in 10.0 mi North 10.4 mph - N/A   Clear
5:55 PM 17.6 °F 5.7 °F 12.2 °F 79% 30.57 in 10.0 mi North 10.4 mph - N/A   Clear
6:15 PM 17.6 °F 6.4 °F 12.2 °F 79% 30.57 in 10.0 mi North 9.2 mph - N/A   Clear
6:35 PM 17.6 °F 5.7 °F 10.4 °F 73% 30.55 in 10.0 mi NNE 10.4 mph - N/A   Clear
6:55 PM 17.6 °F 5.7 °F 12.2 °F 79% 30.55 in 10.0 mi NNE 10.4 mph - N/A   Clear
7:15 PM 17.6 °F 7.3 °F 12.2 °F 79% 30.55 in 10.0 mi NNE 8.1 mph - N/A   Clear
7:35 PM 19.4 °F 8.6 °F 12.2 °F 74% 30.53 in 10.0 mi NE 9.2 mph - N/A   Clear
7:55 PM 19.4 °F 7.9 °F 12.2 °F 74% 30.53 in 10.0 mi NE 10.4 mph 18.4 mph N/A   Clear
8:15 PM 19.4 °F 6.0 °F 12.2 °F 74% 30.51 in 10.0 mi NE 13.8 mph - N/A   Clear
8:35 PM 19.4 °F 7.9 °F 12.2 °F 74% 30.50 in 10.0 mi NE 10.4 mph - N/A   Clear
8:55 PM 19.4 °F 7.2 °F 14.0 °F 80% 30.49 in 10.0 mi NE 11.5 mph - N/A   Clear
9:15 PM 21.2 °F 8.3 °F 14.0 °F 74% 30.48 in 10.0 mi ENE 13.8 mph 18.4 mph N/A   Clear
9:35 PM 21.2 °F 8.3 °F 14.0 °F 74% 30.48 in 10.0 mi NE 13.8 mph - N/A   Clear
9:55 PM 21.2 °F 8.9 °F 15.8 °F 80% 30.49 in 10.0 mi ENE 12.7 mph - N/A   Clear
10:15 PM 21.2 °F 10.1 °F 15.8 °F 80% 30.50 in 10.0 mi ENE 10.4 mph - N/A   Clear
10:35 PM 21.2 °F 9.5 °F 15.8 °F 80% 30.49 in 10.0 mi NE 11.5 mph - N/A   Partly Cloudy
10:55 PM 21.2 °F 10.1 °F 14.0 °F 74% 30.49 in 10.0 mi NE 10.4 mph - N/A   Partly Cloudy
11:15 PM 21.2 °F 8.3 °F 15.8 °F 80% 30.45 in 10.0 mi NE 13.8 mph - N/A   Mostly Cloudy
11:35 PM 21.2 °F 8.9 °F 15.8 °F 80% 30.44 in 10.0 mi NE 12.7 mph - N/A   Overcast
11:55 PM 21.2 °F 9.5 °F 15.8 °F 80% 30.44 in 10.0 mi NE 11.5 mph - N/A   Mostly Cloudy